Home   Weather   Buenos Aires   Past weeks
Flag for Argentina

Past Weather in Buenos Aires, Argentina — Yesterday and Last 2 Weeks

Now
55 °F

Clear.


Feels Like: 55 °F
Forecast: 67 / 54 °F
Wind: 5 mph from Southwest

Location: Buenos Aires Airport

Current Time: Mar 25, 2019 at 3:57:24 am

Latest Report: Mar 25, 2019 at 3:00 am


Visibility: 10 mi

Pressure: 30.07 "Hg

Humidity: 77%

Dew Point: 48 °F

Location of Buenos AiresLocation

Past Weather in Buenos Aires — Graph

°F

Buenos Aires Temperature Yesterday

Maximum temperature yesterday: 70 °F (at 1:00 pm)
Minimum temperature yesterday: 61 °F (at 11:00 pm)
Average temperature yesterday: 66 °F

High & Low Weather Summary for the Past Weeks

 TemperatureHumidityPressure
High84 °F (Mar 18, 4:00 pm)100% (Mar 12, 7:00 am)30.33 "Hg (Mar 12, 7:00 am)
Low55 °F (Mar 21, 6:00 am)33% (Mar 20, 4:00 pm)29.74 "Hg (Mar 18, 3:00 am)
Average69 °F70%30.01 "Hg
* Reported Mar 10 3:00 am — Mar 25 3:00 am, Buenos Aires. Weather by CustomWeather, © 2019

Note: Actual official high and low records may vary slightly from our data, if they occured in-between our weather recording intervals... More about our weather records

Advertising

Buenos Aires Weather History for the Previous 24 Hours

Scroll right to see more
 ConditionsComfort  
Time TempWeatherWind HumidityBarometerVisibility
3:00 am
Mon, Mar 25
55 °FClear.5 mph77%30.07 "Hg10 mi
2:00 am57 °FClear.6 mph67%30.07 "Hg10 mi
1:00 am57 °FClear.8 mph67%30.07 "Hg10 mi
12:00 am59 °FClear.8 mph59%30.07 "Hg10 mi
11:00 pm
Sun, Mar 24
61 °FPassing clouds.9 mph55%30.07 "HgN/A
10:00 pm63 °FClear.7 mph56%30.07 "Hg10 mi
9:00 pm64 °FClear.8 mph56%30.04 "Hg10 mi
8:00 pm66 °FPassing clouds.7 mph49%30.04 "HgN/A
7:00 pm68 °FPassing clouds.6 mph49%30.01 "HgN/A
6:00 pm68 °FPartly sunny.9 mph49%30.01 "HgN/A
5:00 pm70 °FPartly sunny.9 mph50%30.01 "HgN/A
4:00 pm68 °FScattered clouds.8 mph49%30.01 "HgN/A
3:00 pm70 °FPartly sunny.10 mph50%30.01 "HgN/A
2:00 pm70 °FPartly sunny.10 mph50%30.01 "HgN/A
1:00 pm70 °FPassing clouds.9 mph50%30.01 "HgN/A
12:00 pm66 °FPassing clouds.12 mph52%30.01 "HgN/A
11:00 am66 °FPassing clouds.10 mph52%30.01 "HgN/A
10:00 am64 °FPassing clouds.9 mph56%30.01 "HgN/A
9:00 am63 °FPassing clouds.10 mph59%29.98 "HgN/A
8:00 am64 °FSunny.7 mph56%29.98 "Hg10 mi
7:00 am64 °FPassing clouds.7 mph68%29.95 "HgN/A
6:00 am64 °FPassing clouds.6 mph83%29.89 "HgN/A
5:00 am66 °FPassing clouds.8 mph78%29.89 "HgN/A
4:00 am68 °FPassing clouds.7 mph69%29.89 "HgN/A
3:00 am68 °FPassing clouds.10 mph69%29.89 "HgN/A
Weather by CustomWeather, © 2019

See weather overview